User: anonymous   Login
Location: Montreal
(45.5000°N, 73.5833°W)
Time: 10:41:16
(UTC-04:00)
Language:

Envisat - Orbit

View from above orbital plane
View from above orbital plane
View from above satellite
View from above satellite

Ground track
Ground track

The orbit data is extracted from the following two-line orbital elements,

1 27386U 02009A   17292.11061922 -.00000007  00000-0  11439-4 0  9990
2 27386  98.2182 332.1276 0001257  88.1183 272.0151 14.37905679818888
Epoch (UTC): 19 October 2017 02:39:17
Eccentricity: 0.0001257
inclination: 98.2182°
perigee height: 764 km
apogee height: 766 km
right ascension of ascending node: 332.1276°
argument of perigee: 88.1183°
revolutions per day: 14.37905679
mean anomaly at epoch: 272.0151°
orbit number at epoch: 81888

The dashed part of the orbit path shows where the satellite is in the earth's shadow,  

DLR